Terminal Aerodrome Forecast
Issued by NWS Wakefield, VA

Home | Current Version | Previous Version | Text Only | Print | Product List | Glossary On
Versions: 1 2 3 4 5 6 7 8 9 10 11 12 13
000
FTUS41 KAKQ 272300
TAFRIC
TAF
KRIC 272320Z 2800/2824 VRB03KT P6SM SKC
     FM280600 25004KT P6SM BKN070
     FM281000 35008KT P6SM SCT070=

USA.gov is the U.S. government's official web portal to all federal, state and local government web resources and services.